Location: Bocchiglicro
(39.4167°N, 16.7500°E)
Time: 18:39:29
(UTC+00:00)

IRS-1C - Pass Details

Date: 07 June 2020
Orbit: 815 x 817 km, 98.8° (Epoch: 06 July)

Event Time Altitude Azimuth Distance (km) Brightness Sun altitude
Rises 01:20:10 0° 14° (NNE) 3,351 8.6 -18.8°
Reaches altitude 10° 01:22:31 10° 16° (NNE) 2,415 7.6 -18.5°
Maximum altitude 01:27:52 78° 103° (ESE) 837 4.2 -17.9°
Enters shadow 01:31:06 25° 187° (S) 1,602 5.2 -17.5°
